[[{"header":{"parameterUnit":"m.s-1","parameterCategory":1,"la1":30.2991,"la2":30.254,"lo1":-89.0895,"lo2":-89.0444,"dy":0.0017,"dx":0.0017,"nx":28,"ny":28,"refTime":"2025-04-22T09:00:00:Z","depth":0,"parameterNumber":2,"parameterNumberName":"U-component_of_WINDS"},"data":[0,0,0,0,0,0,0,0,0,0,0,0,0,0,0,0,0,0,0,0,0,0,0,0,0,0,0,0,0,0,0,0,0,0,0,0,0,0,0,0,0,0,0,0,0,0,0,0,0,0,0,0,0,0,0,0,0,0,-1.5527,-1.5526,0,-1.5463,-1.5462,-1.5461,-1.5381,-1.538,-1.5378,-1.5377,-1.5315,-1.5315,-1.5314,0,0,0,0,0,0,0,0,0,0,0,0,0,-1.5585,-1.5584,-1.5527,-1.5526,-1.5525,-1.5463,-1.5462,-1.5461,-1.5381,-1.538,-1.5378,-1.5377,-1.5315,-1.5315,-1.5314,0,0,0,0,0,0,0,0,0,0,0,0,0,-1.5544,-1.5584,-1.5527,-1.5478,-1.5473,-1.5463,-1.5462,-1.5461,-1.5382,-1.538,-1.5378,-1.5376,-1.5315,-1.5315,-1.5314,-1.5349,0,0,-1.5312,-1.5312,0,0,0,0,0,0,0,0,-1.5547,-1.5542,-1.5486,-1.5481,-1.5476,-1.5428,-1.5459,-1.5423,-1.5382,-1.5416,-1.5377,-1.5375,-1.5354,-1.535,-1.5343,-1.5346,-1.5343,-1.5312,-1.5312,-1.5311,-1.5311,0,0,0,0,0,0,0,-1.555,-1.5545,-1.5502,-1.5485,-1.5479,-1.546,-1.5453,-1.5452,-1.5397,-1.5413,-1.5407,-1.54,-1.5351,-1.5344,-1.5341,-1.5342,-1.5312,-1.5311,-1.5311,-1.5311,-1.5371,-1.5373,0,0,0,0,0,0,-1.5559,-1.5548,-1.5504,-1.55,-1.5507,-1.5461,-1.5452,-1.5445,-1.5397,-1.5388,-1.5402,-1.5397,-1.5346,-1.5342,-1.5338,-1.5375,-1.5311,-1.5311,-1.531,-1.5369,-1.5371,-1.5373,0,0,0,0,0,0,-1.5561,-1.5556,-1.5506,-1.5522,-1.5514,-1.5462,-1.5455,-1.5445,-1.5437,-1.5388,-1.5379,-1.5404,-1.5344,-1.5339,-1.5346,-1.5372,-1.531,-1.531,-1.5366,-1.537,-1.5372,-1.5449,0,0,0,0,0,0,-1.5563,-1.5557,-1.5568,-1.5523,-1.5514,-1.5514,-1.5456,-1.5445,-1.5436,-1.5428,-1.5388,-1.5379,-1.5342,-1.5348,-1.5346,-1.537,-1.5309,-1.5364,-1.5368,-1.5371,-1.5444,-1.5455,-1.5463,0,0,0,0,0,-1.5565,-1.5594,-1.5569,-1.5565,-1.5527,-1.5516,-1.5511,-1.5466,-1.5438,-1.545,-1.5419,-1.5381,-1.537,-1.5349,-1.5346,-1.537,-1.5362,-1.5367,-1.5371,-1.544,-1.5453,-1.5463,0,0,0,0,0,0,-1.5645,-1.5587,-1.5559,-1.5573,-1.555,-1.5502,-1.5515,-1.5481,-1.5467,-1.546,-1.5407,-1.5399,-1.5413,-1.5393,-1.5371,-1.5402,-1.536,-1.5365,-1.5414,-1.5425,-1.5435,-1.5439,-1.5309,0,0,0,0,0,-1.5664,-1.5659,-1.5609,-1.5626,-1.5616,-1.5568,-1.5562,-1.553,-1.5504,-1.5494,-1.5464,-1.5441,-1.5433,-1.5428,-1.5418,-1.5442,-1.5432,-1.5457,-1.5467,-1.5475,-1.5479,-1.549,-1.55,-1.5388,-1.5388,-1.5388,0,0,-1.5703,-1.5671,-1.5671,-1.5641,-1.5619,-1.5617,-1.556,-1.556,-1.5557,-1.5494,-1.5498,-1.5476,-1.5448,-1.5464,-1.5469,-1.5447,-1.5508,-1.548,-1.5487,-1.5486,-1.5496,-1.5506,-1.5516,-1.5391,-1.5391,-1.539,0,0,-1.5773,-1.5748,-1.576,-1.5739,-1.5706,-1.5675,-1.5678,-1.5636,-1.5618,-1.5621,-1.5574,-1.5572,-1.5558,-1.554,-1.5529,-1.5594,-1.5558,-1.5592,-1.5642,-1.5653,-1.5662,-1.567,-1.5693,-1.5701,-1.5596,-1.5597,-1.5597,0,-1.5826,-1.5819,-1.577,-1.5772,-1.5761,-1.5704,-1.5715,-1.5698,-1.5665,-1.5659,-1.5635,-1.5617,-1.5594,-1.5605,-1.5621,-1.5614,-1.5616,-1.5595,-1.5665,-1.5672,-1.5678,-1.5699,-1.5708,-1.5601,-1.56,-1.56,-1.5599,0,-1.5886,-1.5882,-1.5895,-1.5863,-1.5853,-1.5861,-1.5815,-1.5811,-1.5781,-1.5752,-1.5757,-1.5728,-1.5711,-1.5711,-1.5682,-1.5718,-1.5705,-1.5674,-1.5631,-1.5694,-1.5713,-1.5721,-1.5607,-1.5605,-1.5604,-1.5603,0,0,-1.6002,-1.5944,-1.5949,-1.5934,-1.5895,-1.5891,-1.5897,-1.5879,-1.5877,-1.5857,-1.586,-1.5851,-1.5821,-1.5809,-1.5777,-1.5788,-1.5841,-1.5755,-1.5753,-1.5771,-1.5879,-1.5902,-1.5913,-1.5818,-1.5819,-1.582,-1.5881,0,-1.6064,-1.6068,-1.6026,-1.6042,-1.6038,-1.5984,-1.5989,-1.5966,-1.594,-1.5934,-1.5906,-1.59,-1.5862,-1.5854,-1.5862,-1.5833,-1.5862,-1.5828,-1.5821,-1.5822,-1.5828,-1.5922,-1.5947,-1.6005,-1.5889,-1.589,-1.5891,0,-1.6136,-1.6119,-1.6134,-1.6094,-1.6091,-1.6096,-1.6076,-1.6071,-1.6045,-1.6025,-1.6012,-1.5976,-1.598,-1.5941,-1.5946,-1.5924,-1.5919,-1.5905,-1.5906,-1.5903,-1.5859,-1.5921,-1.6023,-1.6032,-1.5902,-1.5901,-1.59,0,-1.6219,-1.62,-1.6206,-1.6195,-1.6149,-1.6154,-1.6135,-1.6107,-1.6099,-1.6083,-1.6077,-1.6063,-1.6054,-1.6044,-1.6005,-1.598,-1.6016,-1.5973,-1.6,-1.6001,-1.6008,-1.6008,-1.611,-1.6007,-1.6007,-1.6007,-1.6007,0,-1.6292,-1.6303,-1.6242,-1.6246,-1.6258,-1.6211,-1.6224,-1.62,-1.6176,-1.6176,-1.6129,-1.613,-1.6079,-1.6075,-1.6045,-1.6054,-1.6051,-1.6036,-1.6028,-1.6039,-1.6041,-1.6034,-1.6029,-1.6009,-1.6009,-1.6008,-1.6008,0,-1.6385,-1.6345,-1.6348,-1.6305,-1.6294,-1.6305,-1.6268,-1.6271,-1.6243,-1.6243,-1.624,-1.6196,-1.6189,-1.6149,-1.6133,-1.6113,-1.6133,-1.6117,-1.6141,-1.6135,-1.6164,-1.6162,-1.6265,-1.6276,-1.6167,-1.6168,-1.6169,0,-1.6434,-1.6441,-1.6398,-1.6394,-1.6377,-1.6371,-1.6362,-1.6317,-1.631,-1.6281,-1.6288,-1.6277,-1.6265,-1.6256,-1.6223,-1.6211,-1.6194,-1.6231,-1.6192,-1.6203,-1.6194,-1.6193,-1.6194,-1.6239,-1.6241,-1.6242,-1.6243,0,-1.6524,-1.6504,-1.6492,-1.6475,-1.6466,-1.645,-1.6432,-1.6431,-1.6381,-1.6376,-1.6367,-1.6358,-1.6341,-1.6331,-1.6313,-1.6296,-1.6261,-1.6256,-1.6261,-1.6272,-1.6286,-1.6278,-1.6163,-1.6253,-1.6252,-1.6251,-1.6251,-1.625,-1.6596,-1.66,-1.657,-1.656,-1.6541,-1.6525,-1.6525,-1.6497,-1.6488,-1.647,-1.6444,-1.6439,-1.6414,-1.6386,-1.6372,-1.6368,-1.6348,-1.6356,-1.6358,-1.6361,-1.6366,-1.6287,-1.6365,-1.6364,-1.6364,-1.6364,-1.6364,0,-1.6683,-1.6661,-1.6652,-1.6627,-1.6619,-1.6587,-1.6565,-1.6561,-1.6557,-1.6536,-1.6525,-1.6516,-1.6506,-1.6473,-1.646,-1.6463,-1.6447,-1.6461,-1.646,-1.6456,-1.6385,-1.6381,-1.6474,-1.6474,-1.6474,-1.6474,-1.6474,-1.6474,-1.6727,-1.6732,-1.6709,-1.6705,-1.6684,-1.6677,-1.6667,-1.6653,-1.6636,-1.6627,-1.6618,-1.6596,-1.6571,-1.6555,-1.6545,-1.6536,-1.6533,-1.6552,-1.6538,-1.6472,-1.6461,-1.6451,-1.6447,-1.6552,-1.6552,-1.6609,-1.661,-1.661]},{"header":{"parameterUnit":"m.s-1","parameterCategory":1,"la1":30.2991,"la2":30.254,"lo1":-89.0895,"lo2":-89.0444,"dy":0.0017,"dx":0.0017,"nx":28,"ny":28,"refTime":"2025-04-22T09:00:00:Z","depth":0,"parameterNumber":3,"parameterNumberName":"V-component_of_WINDS"},"data":[0,0,0,0,0,0,0,0,0,0,0,0,0,0,0,0,0,0,0,0,0,0,0,0,0,0,0,0,0,0,0,0,0,0,0,0,0,0,0,0,0,0,0,0,0,0,0,0,0,0,0,0,0,0,0,0,0,0,2.098,2.0981,0,2.1087,2.1088,2.109,2.1102,2.1101,2.11,2.1099,2.1209,2.1212,2.1216,0,0,0,0,0,0,0,0,0,0,0,0,0,2.0785,2.0788,2.098,2.0981,2.0982,2.1087,2.1089,2.109,2.1102,2.1101,2.11,2.1099,2.1207,2.1212,2.1217,0,0,0,0,0,0,0,0,0,0,0,0,0,2.0878,2.0789,2.0979,2.1001,2.1004,2.1087,2.1089,2.109,2.1103,2.1101,2.1099,2.1098,2.1206,2.1212,2.1217,2.1286,0,0,2.1235,2.1238,0,0,0,0,0,0,0,0,2.0873,2.0886,2.0997,2.1,2.1003,2.108,2.106,2.1156,2.1103,2.1065,2.1099,2.1097,2.1167,2.1176,2.12,2.1291,2.1295,2.1236,2.1239,2.1242,2.1244,0,0,0,0,0,0,0,2.0867,2.0881,2.1022,2.0998,2.1002,2.1005,2.1017,2.1078,2.1124,2.1068,2.107,2.1082,2.1169,2.1194,2.1202,2.1297,2.1236,2.1241,2.1244,2.1247,2.145,2.1452,0,0,0,0,0,0,2.0856,2.0876,2.1019,2.1025,2.0933,2.101,2.1023,2.1057,2.1123,2.1132,2.1083,2.1082,2.1185,2.1195,2.1206,2.1292,2.1242,2.1247,2.1251,2.1449,2.1451,2.1453,0,0,0,0,0,0,2.0852,2.0869,2.1014,2.0951,2.097,2.1015,2.1053,2.106,2.1085,2.1134,2.1143,2.1101,2.1184,2.1198,2.1266,2.1296,2.125,2.1255,2.1446,2.1449,2.1452,2.1463,0,0,0,0,0,0,2.0846,2.0867,2.0894,2.0951,2.0973,2.1073,2.1055,2.1063,2.1095,2.1095,2.1153,2.1161,2.1184,2.1257,2.1272,2.1303,2.126,2.1444,2.1448,2.1451,2.146,2.1466,2.147,0,0,0,0,0,2.0839,2.0892,2.0895,2.0912,2.1007,2.1074,2.1087,2.1112,2.1098,2.1125,2.1156,2.1159,2.1289,2.1264,2.1281,2.1314,2.1442,2.1447,2.1451,2.1458,2.1464,2.147,0,0,0,0,0,0,2.0837,2.09,2.0904,2.0977,2.102,2.1076,2.1112,2.1118,2.1166,2.1163,2.1192,2.1205,2.1272,2.1299,2.127,2.1384,2.1365,2.1372,2.1364,2.1371,2.1376,2.1369,2.1265,0,0,0,0,0,2.0845,2.0894,2.0947,2.1006,2.1028,2.1066,2.1096,2.1111,2.1157,2.1175,2.1212,2.1256,2.1307,2.134,2.139,2.1463,2.1477,2.1494,2.1499,2.1503,2.151,2.1553,2.1561,2.1467,2.1467,2.1467,0,0,2.0862,2.0902,2.0932,2.1007,2.1042,2.1093,2.1081,2.1135,2.1173,2.1183,2.1251,2.1279,2.133,2.1401,2.1435,2.1426,2.1539,2.1509,2.1512,2.1517,2.1558,2.1567,2.1575,2.147,2.1469,2.1469,0,0,2.0919,2.0954,2.1009,2.1044,2.1098,2.1123,2.1135,2.1191,2.121,2.1278,2.1287,2.1332,2.1419,2.1455,2.1485,2.1556,2.1561,2.1571,2.1599,2.164,2.1648,2.1654,2.1681,2.169,2.1578,2.1578,2.1578,0,2.0934,2.1011,2.1035,2.109,2.1123,2.1134,2.1189,2.1222,2.1289,2.1312,2.1301,2.1411,2.1446,2.1527,2.1544,2.1567,2.1584,2.1566,2.1644,2.1651,2.1658,2.1684,2.1694,2.1579,2.1579,2.1578,2.1578,0,2.1027,2.108,2.1117,2.1183,2.1219,2.1274,2.1306,2.1341,2.1352,2.1378,2.1447,2.149,2.1548,2.1568,2.158,2.1651,2.1644,2.1639,2.162,2.1668,2.1693,2.1703,2.158,2.158,2.1579,2.1579,0,0,2.1088,2.1165,2.1179,2.1209,2.1268,2.131,2.1365,2.1422,2.1452,2.1497,2.1545,2.1617,2.1613,2.1647,2.1662,2.1698,2.1753,2.1688,2.169,2.17,2.1835,2.1841,2.1852,2.1756,2.1758,2.1759,2.1832,0,2.1154,2.1253,2.1276,2.1361,2.1411,2.1422,2.1469,2.1511,2.1537,2.1583,2.161,2.1663,2.1651,2.1672,2.1707,2.1739,2.1781,2.1734,2.1801,2.1803,2.179,2.1865,2.1871,2.1937,2.1842,2.1843,2.1844,0,2.1245,2.1293,2.1382,2.1436,2.1458,2.1501,2.1556,2.1599,2.1647,2.1663,2.17,2.1713,2.177,2.1747,2.1827,2.1794,2.1823,2.1842,2.1845,2.1854,2.1828,2.1878,2.1959,2.197,2.186,2.1858,2.1857,0,2.1282,2.1369,2.1435,2.1459,2.1523,2.1553,2.1581,2.1627,2.166,2.1708,2.173,2.1783,2.1813,2.1854,2.188,2.1861,2.1959,2.1937,2.1975,2.1974,2.1997,2.1995,2.2086,2.2011,2.2011,2.2011,2.2011,0,2.1355,2.141,2.1453,2.1493,2.1555,2.1581,2.1641,2.1669,2.171,2.1756,2.1767,2.181,2.1841,2.1888,2.1909,2.1973,2.1986,2.2001,2.2006,2.2001,2.2,2.2022,2.2019,2.2014,2.2013,2.2013,2.2012,0,2.1409,2.1439,2.1512,2.1566,2.1581,2.1624,2.1671,2.171,2.1735,2.1794,2.1809,2.1848,2.1904,2.1934,2.2004,2.2018,2.209,2.2092,2.2075,2.2077,2.2114,2.211,2.2223,2.224,2.2152,2.2153,2.2154,0,2.1455,2.1498,2.1556,2.1588,2.1617,2.1668,2.1702,2.1728,2.1763,2.1821,2.1854,2.191,2.1957,2.2046,2.2081,2.2135,2.2139,2.2175,2.2147,2.2141,2.2142,2.214,2.2145,2.2181,2.2181,2.2182,2.2183,0,2.1533,2.1546,2.1595,2.165,2.169,2.1734,2.1778,2.1803,2.1836,2.1875,2.1933,2.1969,2.2041,2.2097,2.2154,2.2182,2.2189,2.219,2.2202,2.2199,2.2188,2.2197,2.209,2.2188,2.2188,2.2187,2.2187,2.2187,2.1586,2.1625,2.1673,2.1727,2.1762,2.1803,2.1843,2.1873,2.1922,2.1983,2.1995,2.2056,2.2102,2.2178,2.2208,2.2257,2.2249,2.2266,2.2271,2.2275,2.2278,2.2178,2.2267,2.2266,2.2266,2.2266,2.2266,0,2.1667,2.1698,2.1748,2.1808,2.1851,2.1852,2.19,2.1936,2.199,2.2033,2.2079,2.2145,2.22,2.2239,2.2295,2.2326,2.233,2.234,2.2339,2.2346,2.228,2.2265,2.2335,2.2335,2.2335,2.2335,2.2335,2.2335,2.1714,2.1781,2.1799,2.1883,2.1914,2.1974,2.2002,2.2039,2.2073,2.2147,2.2193,2.2218,2.2259,2.2318,2.2368,2.2378,2.2399,2.2409,2.2419,2.2357,2.235,2.2343,2.233,2.2412,2.2412,2.2481,2.2482,2.2482]}]]